Regional Weather Roundup
Issued by NWS

Home | Current Version | Previous Version | Graphics & Text | Print | Product List | Glossary On
Versions: 1 2 3 4 5 6 7 8 9 10 11 12 13 14 15 16 17 18 19 20 21 22 23 24 25 26 27 28 29 30 31 32 33 34 35 36 37 38 39 40 41 42 43 44 45 46 47 48 49 50
000
ASUS43 KLMK 190602
RWRKY
KENTUCKY REGIONAL WEATHER ROUNDUP
NATIONAL WEATHER SERVICE LOUISVILLE KY
100 AM EST MON FEB 19 2018

NOTE "FAIR" INDICATES FEW OR NO CLOUDS BELOW 12,000 FEET
WITH NO SIGNIFICANT WEATHER AND/OR OBSTRUCTIONS TO VISIBILITY.

KYZ001>023-026-027-061>063-070>075-190700-
WESTERN AND SOUTH CENTRAL KENTUCKY

CITY           SKY/WX    TMP DP  RH WIND       PRES   REMARKS
PADUCAH        CLOUDY    56  49  77 SW9G22    30.04R
HENDERSON      CLOUDY    53  42  66 S10       30.03S
OWENSBORO      CLOUDY    51  41  68 S8        30.05F
HOPKINSVILLE   CLOUDY    57  51  80 S13       30.08R
BOWLING GREEN  CLOUDY    58  49  72 S14       30.11R
GLASGOW        NOT AVBL
$$

KYZ024-025-028>034-038-045-046-053-190700-
NORTH CENTRAL KENTUCKY

CITY           SKY/WX    TMP DP  RH WIND       PRES   REMARKS
LOUISVILLE/SDF CLOUDY    49  36  61 SE9       30.08S
LOUISVILLE/LOU CLOUDY    50  36  58 S8        30.09S
FORT KNOX      CLOUDY    50  37  60 S8        30.08F
$$

KYZ035>037-039>044-047>052-055>060-089>105-190700-
NORTHEAST KENTUCKY

CITY           SKY/WX    TMP DP  RH WIND       PRES   REMARKS
LEXINGTON      CLOUDY    51  36  56 S12       30.12S
COVINGTON      MOCLDY    41  34  76 S10       30.08F
FRANKFORT      CLOUDY    50  34  54 S8        30.10S
$$

KYZ054-064>069-076>088-106>120-190700-
SOUTHEAST KENTUCKY

CITY           SKY/WX    TMP DP  RH WIND       PRES   REMARKS
JACKSON        CLOUDY    50  35  56 SW5       30.15S
LONDON         LGT RAIN  56  43  61 S8        30.16R
SOMERSET       CLOUDY    54  45  71 CALM      30.17S
MIDDLESBORO    CLOUDY    48  46  90 CALM      30.24S
MONTICELLO     NOT AVBL
$$





USA.gov is the U.S. government's official web portal to all federal, state and local government web resources and services.